EW4987 Weather Reports


Display with metric or nautical units.
time (UTC)temp
F
wind
direction
speed
MPH
gust
MPH
rain 1hr
in
rain 24hr
in
rain mn
in
humidity
%
barometer
mb
20260903153025 55 266 0.0 0.0 0.00 0.00 0.00 37 1008.0
20260903151524 54 265 0.0 0.0 0.00 0.00 0.00 30 1008.2
20260903150032 51 258 0.0 0.0 0.00 0.00 0.00 33 1008.3
20260903144519 49 258 0.0 0.0 0.00 0.00 0.00 25 1008.4
20260903143014 47 258 0.0 0.0 0.00 0.00 0.00 15 1008.4
20260903141510 47 258 0.0 0.0 0.00 0.00 0.00 15 1008.2
20260903140016 44 258 0.0 0.0 0.00 0.00 0.00 8 1008.1
20260903134500 42 258 0.0 0.0 0.00 0.00 0.00 11 1007.9
20260903133059 41 258 0.0 0.0 0.00 0.00 0.00 16 1007.8
20260903131553 42 258 0.0 0.0 0.00 0.00 0.00 14 1007.6
20260903130048 42 258 0.0 0.0 0.00 0.00 0.00 14 1007.1
20260903124548 42 258 0.0 0.0 0.00 0.01 0.00 18 1006.9
20260903123039 42 258 0.0 0.0 0.00 0.01 0.00 18 1006.9
20260903121535 43 258 0.0 0.0 0.00 0.01 0.00 17 1006.7
20260903120037 43 258 0.0 0.0 0.00 0.01 0.00 20 1006.5
20260903114532 43 258 0.0 0.0 0.00 0.01 0.00 21 1006.3
20260903113029 43 258 0.0 0.0 0.00 0.01 0.00 23 1006.2
20260903111524 44 258 0.0 0.0 0.00 0.01 0.00 28 1006.1
20260903110022 45 258 0.0 0.0 0.00 0.01 0.00 33 1006.0
20260903104519 45 258 0.0 0.0 0.00 0.01 0.00 37 1005.7
20260903103015 45 258 0.0 0.0 0.00 0.01 0.00 45 1005.5
20260903101513 45 258 0.0 0.0 0.00 0.01 0.00 49 1005.3
20260903100022 46 258 0.0 0.0 0.00 0.01 0.00 54 1005.1
20260903094507 46 258 0.0 0.0 0.00 0.01 0.00 54 1004.9
20260903093004 47 258 0.0 0.0 0.00 0.01 0.00 54 1004.8
20260903091502 48 263 0.0 0.0 0.00 0.01 0.00 54 1004.6
20260903084558 48 263 0.0 0.0 0.00 0.01 0.00 55 1004.4
20260903083059 49 263 0.0 0.0 0.00 0.01 0.00 55 1004.4
20260903081555 50 263 0.0 0.0 0.00 0.01 0.00 55 1004.4
20260903080050 51 263 0.0 0.0 0.00 0.01 0.00 55 1004.3
20260903074547 52 263 0.0 0.0 0.00 0.01 0.00 56 1004.0
20260903073043 54 263 0.0 0.0 0.00 0.01 0.00 56 1003.8
20260903071554 54 263 0.0 0.0 0.00 0.01 0.00 56 1003.7
20260903070056 54 264 0.0 0.0 0.00 0.01 0.00 56 1003.7
20260903064537 55 264 0.0 0.0 0.00 0.01 0.00 56 1003.7
20260903063036 55 264 0.0 0.0 0.00 0.01 0.00 54 1003.5
20260903061531 56 264 0.0 0.0 0.00 0.01 0.00 52 1003.4
20260903060029 57 264 0.0 0.0 0.00 0.01 0.00 49 1003.1
20260903054535 57 264 0.0 0.0 0.00 0.01 0.01 48 1003.1
20260903053019 57 263 0.0 0.0 0.00 0.01 0.01 48 1003.0
20260903051514 57 263 0.0 0.0 0.00 0.01 0.01 46 1003.0
20260903050010 56 209 0.0 0.0 0.00 0.01 0.01 47 1002.9
20260903044505 57 209 0.0 0.0 0.00 0.01 0.01 48 1002.8
20260903043003 59 209 0.0 0.0 0.00 0.01 0.01 45 1002.8
20260903041608 62 208 0.0 0.0 0.00 0.01 0.01 34 1002.7
20260903040059 63 208 0.0 0.0 0.00 0.01 0.01 34 1002.6
20260903034547 63 209 0.0 0.0 0.00 0.01 0.01 30 1002.5
20260903033043 63 209 0.0 0.0 0.00 0.01 0.01 30 1002.3
20260903031540 63 211 0.0 0.0 0.00 0.01 0.01 30 1002.2
20260903030035 64 211 0.0 0.0 0.00 0.01 0.01 30 1002.1
20260903024530 65 211 0.0 0.0 0.00 0.01 0.01 29 1002.1
20260903023035 65 211 0.0 0.0 0.00 0.01 0.01 31 1002.0
20260903021521 66 211 0.0 0.0 0.00 0.01 0.01 31 1002.0
20260903020017 66 219 0.0 0.0 0.00 0.01 0.01 30 1002.0
20260903014516 67 219 0.0 0.0 0.00 0.01 0.01 32 1002.1
20260903013007 70 220 0.0 0.0 0.00 0.01 0.01 27 1002.2
20260903011504 71 220 0.0 0.0 0.00 0.01 0.01 27 1002.2
20260903010100 71 220 0.0 0.0 0.00 0.01 0.01 25 1002.4
20260903004559 71 220 0.0 0.0 0.00 0.01 0.01 25 1002.5
20260903003106 72 213 0.0 0.0 0.00 0.01 0.01 22 1002.5
20260903001546 73 190 0.0 0.0 0.00 0.01 0.01 24 1002.4
20260903000049 75 360 0.0 0.0 0.00 0.01 0.01 22 1002.4
20260902234536 75 219 0.0 0.0 0.00 0.01 0.01 22 1002.4
20260902233036 76 360 0.0 0.0 0.00 0.01 0.01 20 1002.3
20260902231527 75 209 0.0 0.0 0.00 0.01 0.01 26 1002.5
20260902230023 75 167 0.0 0.0 0.00 0.01 0.01 23 1002.4
20260902224519 76 207 0.0 0.0 0.00 0.01 0.01 23 1002.4
20260902223015 76 223 0.0 0.0 0.00 0.01 0.01 24 1002.6
20260902221510 75 200 0.0 0.0 0.00 0.01 0.01 26 1002.6
20260902220008 76 196 0.0 0.0 0.00 0.01 0.01 23 1002.8
20260902214622 76 212 0.0 0.0 0.00 0.01 0.01 20 1002.8
20260902213056 76 196 0.0 0.0 0.00 0.01 0.01 21 1002.9
20260902211554 76 211 0.0 0.0 0.00 0.01 0.01 25 1002.8
20260902210052 76 153 0.0 0.0 0.00 0.01 0.01 27 1002.9
20260902204543 76 170 0.0 0.0 0.00 0.01 0.01 28 1003.2
20260902203039 76 177 0.0 0.0 0.00 0.01 0.01 28 1003.4
20260902201539 76 360 0.0 0.0 0.00 0.01 0.01 27 1003.3
20260902200030 76 153 0.0 0.0 0.00 0.01 0.01 27 1003.5
20260902194535 75 202 0.0 0.0 0.00 0.01 0.01 27 1003.7
20260902193021 74 237 0.0 0.0 0.00 0.01 0.01 29 1004.0
20260902191517 74 200 0.0 0.0 0.00 0.01 0.01 32 1004.2
20260902190012 74 207 0.0 0.0 0.00 0.01 0.01 33 1004.3
20260902184507 73 143 0.0 0.0 0.00 0.01 0.01 39 1004.5
20260902183002 73 159 0.0 0.0 0.00 0.01 0.01 39 1004.7
20260902181602 73 182 0.0 0.0 0.00 0.01 0.01 40 1004.9
20260902180055 72 162 0.0 0.0 0.00 0.01 0.01 38 1005.1
20260902174553 71 222 0.0 0.0 0.00 0.01 0.01 38 1005.3
20260902173044 71 159 0.0 0.0 0.00 0.01 0.01 41 1005.4
20260902171542 71 195 0.0 0.0 0.00 0.01 0.01 41 1005.5
20260902170038 69 178 0.0 0.0 0.00 0.01 0.01 40 1005.5
20260902164540 70 175 0.0 0.0 0.00 0.01 0.01 40 1005.4
20260902163032 69 360 0.0 0.0 0.00 0.01 0.01 40 1005.6
20260902161527 69 161 0.0 0.0 0.00 0.01 0.01 43 1005.5
20260902160017 69 180 0.0 0.0 0.00 0.01 0.01 44 1006.0
20260902154519 68 176 0.0 12.0 0.00 0.01 0.01 43 1006.1